Find Starlink 33834

NORAD ID: 63586 Int'l Des: 2025-076 Owner: SPXS Country: US Constellation: starlink operational
LEOCIRCULAR

現在のビュー

3D地球を読み込み中...

About Starlink 33834

Starlink 33834 (NORAD 63586) is a starlink constellation satellite (v2 mini) launched Apr 14, 2025 by SPXS of US. It operates in LEO, CIRCULAR orbit with a mass of 575.00 kg.

次回通過

Passes for default location (London). Set your location on the main map for personalized predictions.

高度履歴

Loading altitude history...

軌道要素

1 63586U 25076T 26265.13399750 .00011013 00000-0 40907-3 0 9995
2 63586 42.9964 292.3020 0000831 225.1861 134.8924 15.27583149 81879
Epoch: Sep 22, 2026 • Age: 9 hours

現在のステータス

高度 488.7 km
遠地点 / 近地点 N/A
速度 7.62 km/s
衛星直下点 -25.32°S, 41.05°W
打ち上げ日 Apr 14, 2025
運用期間 1.4 years
タイプ internet

技術仕様

分類 Payload
質量 575.00 kg
乾燥質量 530.00 kg
長さ 0.30 m
スパン 29.00 m
形状 ? Box + pan
製造者 SPXS
バスタイプ Starlink V2MO
フェーズステータス In Orbit
所有者/国 SPXS/US

Most Searched